Simultaneous Nadir Overpasses (SNOs) Predictions

Prediction of SNOs between METOP-B and NOAA-19 Satellite Orbit:

Table of predicted SNOs for the next 14.0 days since TLE Epoch: 10/1/2022
Index Date (METOP-B) Time (METOP-B) Lat,Lon (METOP-B) SZA (METOP-B ) Date (NOAA-19) Time (NOAA-19) Lat,Lon (NOAA-19) SZA (NOAA-19 ) Distance(km) Time Diff (sec)
1 10/05/2022 10:31:19 80.89, 56.74 87.53 10/05/2022 10:30:11 80.89, 56.59 87.49 2.72 68
2 10/05/2022 11:22:00 -80.90,-135.86 92.45 10/05/2022 11:21:07 -80.89,-135.72 92.46 2.61 53
3 10/05/2022 12:12:41 80.89, 31.27 87.54 10/05/2022 12:12:10 80.89, 31.36 87.54 1.63 31
4 10/05/2022 13:03:22 -80.89,-161.33 92.44 10/05/2022 13:03:07 -80.89,-161.32 92.45 0.10 15
5 10/05/2022 13:54:02 80.90, 6.16 87.60 10/05/2022 13:54:09 80.89, 6.14 87.59 1.22 7
6 10/05/2022 14:44:44 -80.88, 173.20 92.43 10/05/2022 14:45:07 -80.89, 173.07 92.43 2.47 23
7 10/05/2022 15:35:24 80.89, -19.30 87.61 10/05/2022 15:36:09 80.89, -19.46 87.61 2.77 45



Historial Predications of SNOs between METOP-B and NOAA-19
